Regional Weather Roundup
Issued by NWS Cleveland, OH

Home | Current Version | Previous Version | Graphics & Text | Print | Product List | Glossary On
Versions: 1 2 3 4 5 6 7 8 9 10 11 12 13 14 15 16 17 18 19 20 21 22 23 24 25 26 27 28 29 30 31 32 33 34 35 36 37 38 39 40 41 42 43 44 45 46 47 48 49 50
000
ASUS41 KCLE 260210
RWRCLE
OHIO REGIONAL WEATHER ROUNDUP
NATIONAL WEATHER SERVICE CLEVELAND, OH
1000 PM EDT WED APR 25 2018

NOTE: "FAIR" INDICATES FEW OR NO CLOUDS BELOW 12,000 FEET WITH NO
SIGNIFICANT WEATHER AND/OR OBSTRUCTIONS TO VISIBILITY.

OHZ001>008-015>018-024>027-034-035-043-044-260300-
   NORTHWEST OHIO

CITY           SKY/WX    TMP DP  RH WIND       PRES   REMARKS
DEFIANCE       FAIR      51  36  56 NW8       29.95R
FINDLAY        FAIR      51  32  48 E12       29.93R
TOLEDO EXPRESS FAIR      48  43  82 E6        29.94R
TOLEDO EXEC    FAIR      46  40  79 E6        29.96R
LIMA           FAIR      51  39  63 NW13      29.93R
$$

OHZ009>014-019>023-028>033-038-089-260300-
   NORTHEAST OHIO

CITY           SKY/WX    TMP DP  RH WIND       PRES   REMARKS
CLE-HOPKINS    MOCLDY    44  39  82 NE12      29.99R
CLE-LAKEFRONT  CLOUDY    42  38  85 NE8       29.96R
CUY CO. ARPT   MOCLDY    43  39  87 NE12      29.96R
LORAIN-ELYRIA  MOCLDY    42  36  79 NE13      29.97R
ASHTABULA      CLOUDY    39  36  89 NW13      29.94S
AKRON-CANTON   FAIR      42  36  79 N6        29.94R
WOOSTER        FAIR      42  39  89 N3        29.95R
MANSFIELD      FAIR      43  41  93 NE3       29.94R
YOUNGSTOWN     CLOUDY    41  37  86 NW14      29.92S
$$

OHZ042-051>053-060>062-070>072-077>081-260300-
  SOUTHWEST OHIO

CITY           SKY/WX    TMP DP  RH WIND       PRES   REMARKS
CINC-COVINGTON CLOUDY    55  43  63 NW5       29.93R
CINC-LUNKEN    FAIR      50  49  96 CALM      29.93R
HAMILTON       FAIR      49  46  90 CALM      29.94R
DAYTON         FAIR      53  38  56 NW10      29.94R
WRIGHT-PAT AFB PTCLDY    51  42  70 CALM      29.92R
DAYTON GENERAL FAIR      58  36  43 N3        29.92R
WILMINGTON     FAIR      51  48  89 E3        29.93R
$$

OHZ036-037-039>041-045>050-054>059-063>069-073>076-082>088-260300-
  CENTRAL AND SOUTHEAST OHIO

CITY           SKY/WX    TMP DP  RH WIND       PRES   REMARKS
COLUMBUS       MOCLDY    51  43  74 SE3       29.91R
OSU AIRPORT    MOCLDY    52  42  69 SW3       29.91R
BOLTON FIELD   FAIR      46  42  83 W3        29.92S
RICKENBACK AFB FAIR      51  43  76 CALM      29.92S
NEWARK         FAIR      47  45  93 CALM      29.92R
MARION         FAIR      48  44  86 NE9       29.94R
LANCASTER      FAIR      47  44  90 CALM      29.93R
ZANESVILLE     MOCLDY    49  43  80 CALM      29.93R
NEW PHILLY     NOT AVBL
$$




USA.gov is the U.S. government's official web portal to all federal, state and local government web resources and services.